Weather in Narovlya

Belarus     51˚47′50″N   29˚30′24″E
temp.,
°C
wind,
m/s
gust,
m/s
humid.,
%
clouds,
%
prec.,
mm/h
press.,
hPa
HPBL,
m
29 november, sun
sun2900:00+1˚sse129699 0.1 1019157
03:00+1˚e009899 1.0 101968
06:00+1˚s1196100 0.1 101897
09:00+1˚sw2394100 0.3 1019214
12:00+2˚s2386100 0.2 1019404
15:00+2˚ssw347497 0.4 1019722
18:00+1˚s3580100 0.1 1020468
21:00s3582100 0.1 1021228
30 november, mon
mon3000:00ssw3676100 0.0 1022624
03:00−2˚s368893 0.0 1023180
06:00−2˚ssw25900 0.0 1023174
09:00−2˚sw25920 0.0 1025175
12:00wsw238139 0.0 1025499
15:00w247469 0.0 1026692
18:00w1373100 0.0 1027186
21:00wnw247396 0.0 1028244
1 december, tue
tue100:00nw2372100 0.0 1028345
03:00nnw2372100 0.0 1029666
06:00nne1270100 0.0 1029575
09:00−1˚ne2369100 0.0 1030190
12:00ne236353 0.0 1030633
15:00+1˚ne346327 0.0 1029624
18:00−2˚ne35800 0.0 1029113
21:00−2˚ne37850 0.0 1030228
2 december, wed
wed200:00−1˚ne359461 0.1 1029257
03:00ne369679 0.2 1029304
06:00ene4797100 0.1 1028400
09:00e489198 0.3 1028494
12:00e4779100 0.0 1028576
15:00ese4687100 0.1 1027505
18:00−1˚e3695100 0.1 1027384
21:00−1˚ese4795100 0.3 1027390
3 december, thu
thu300:00−1˚ese369498 0.1 1027383
03:00−2˚ese369597 0.3 1027306
06:00−2˚ese3695100 0.3 1026296
09:00−2˚ese369593 0.3 1026271
12:00se468893 0.0 1026399
15:00+1˚se358996 0.0 1026438
18:00e5791100 0.0 1025311
21:00ese5990100 0.0 1025301